Iridium 62 - Orbit

View from above orbital plane
View from above orbital plane
View from above satellite
View from above satellite

Ground track
Ground track

The orbit data is extracted from the following two-line orbital elements,

1 25285U 98021A   13144.46981807  .00000230  00000-0  75068-4 0  3100
2 25285 086.3964 124.5349 0002291 106.7680 253.3768 14.34220488792211
Epoch (UTC): 24 May 2013 11:16:32
Eccentricity: 0.0002291
inclination: 86.3964°
perigee height: 776 km
apogee height: 779 km
right ascension of ascending node: 124.5349°
argument of perigee: 106.7680°
revolutions per day: 14.34220488
mean anomaly at epoch: 253.3768°
orbit number at epoch: 79221

The dashed part of the orbit path shows where the satellite is in the earth's shadow,  

Developed and maintained by Chris Peat, Heavens-Above GmbH. Please read the updated FAQ before sending e-mail. Imprint. DLR